Simultaneous Nadir Overpasses (SNOs) Predictions

Prediction of SNOs between GOES-17 and METOP-C Satellite Orbit:

Table of predicted SNOs for the next 14.0 days since TLE Epoch: 8/26/2023
Index Date Time (GOES-17) GOES-17 Lat,Lon METOP-C Lat,Lon Distance(km) Time Diff (sec)
1 08/26/2023 16:29:02 0.00,-104.71 -0.05,-104.56 17.12 80
2 08/29/2023 04:24:39 -0.00,-104.68 0.14,-104.16 60.07 80
3 08/30/2023 16:43:30 0.00,-104.69 0.90,-108.71 458.10 80
4 08/31/2023 16:25:29 0.00,-104.70 -0.21,-103.72 111.48 80
5 09/02/2023 04:44:28 -0.00,-104.68 -0.81,-108.31 413.41 80
6 09/03/2023 04:21:07 -0.01,-104.68 0.30,-103.31 155.91 80
7 09/04/2023 16:39:57 0.00,-104.69 0.71,-107.87 362.10 80
8 09/05/2023 16:21:57 0.00,-104.70 -0.41,-102.88 207.56 80
9 09/07/2023 04:40:55 0.00,-104.68 -0.62,-107.47 317.19 80
10 09/08/2023 04:17:35 -0.00,-104.68 0.50,-102.47 252.02 80
